VIR7B EGLL-KLAX

Flight info

Callsign VIR7B
Flight time N/A
Altitude 24000
Route CPT L9 DIDZA N14 ELNIF/N0487F340 DCT MEDOG DCT KRAGY DCT PEMOB DCT VATRY DCT PIKIL/M085F340 DCT 57N020W 58N030W 59N040W 60N050W/M085F360 DCT RADUN N938B PEPKI/N0486F360 N938B LOPVI DCT 58N070W 56N080W/N0493F380 53N090W DCT KALLU DCT YPG DCT MOT DCT RECAP DCT CZI DCT OCS J107 BLD DCT HAKMN ANJLL4
Aircraft A35K/H-SDE2E3GHIJ3J4J5LM1ORWXY/LB1D1

Departure

Time 2026-05-01 14:14
Airport London Heathrow Airport (EGLL)

Arrival

Time N/A
Airport Los Angeles International Airport (KLAX)
Time Latitude Longitude Altitude Speed Heading
2026-05-01 13:34 51.47052 -0.46081 95 ft 0 kts 55°
2026-05-01 13:58 51.47045 -0.46097 93 ft 3 kts 55°
2026-05-01 13:58 51.47034 -0.46124 91 ft 3 kts 55°
2026-05-01 13:59 51.47024 -0.46146 92 ft 3 kts 46°
2026-05-01 13:59 51.47011 -0.46163 90 ft 3 kts
2026-05-01 13:59 51.46998 -0.46160 90 ft 1 kts 326°
2026-05-01 13:59 51.47013 -0.46176 90 ft 3 kts 326°
2026-05-01 14:00 51.47025 -0.46189 92 ft 0 kts 326°
2026-05-01 14:03 51.47029 -0.46193 92 ft 2 kts 326°
2026-05-01 14:04 51.47056 -0.46223 96 ft 7 kts 326°
2026-05-01 14:04 51.47099 -0.46269 96 ft 8 kts 326°
2026-05-01 14:04 51.47132 -0.46305 96 ft 9 kts 326°
2026-05-01 14:04 51.47189 -0.46367 96 ft 11 kts 326°
2026-05-01 14:05 51.47238 -0.46500 94 ft 11 kts 271°
2026-05-01 14:05 51.47239 -0.46585 92 ft 12 kts 270°
2026-05-01 14:05 51.47238 -0.46717 95 ft 11 kts 270°
2026-05-01 14:05 51.47234 -0.46834 96 ft 10 kts 251°
2026-05-01 14:06 51.47189 -0.46862 95 ft 7 kts 185°
2026-05-01 14:06 51.47134 -0.46865 93 ft 8 kts 182°
2026-05-01 14:06 51.47073 -0.46865 92 ft 9 kts 179°
2026-05-01 14:06 51.47006 -0.46863 92 ft 10 kts 180°
2026-05-01 14:07 51.46932 -0.46863 92 ft 11 kts 179°
2026-05-01 14:07 51.46854 -0.46862 94 ft 12 kts 180°
2026-05-01 14:07 51.46771 -0.46861 96 ft 12 kts 180°
2026-05-01 14:08 51.46658 -0.46928 97 ft 7 kts 262°
2026-05-01 14:08 51.46657 -0.47018 95 ft 9 kts 270°
2026-05-01 14:08 51.46657 -0.47122 95 ft 10 kts 269°
2026-05-01 14:08 51.46657 -0.47240 95 ft 11 kts 269°
2026-05-01 14:09 51.46656 -0.47372 96 ft 13 kts 269°
2026-05-01 14:09 51.46656 -0.47517 96 ft 13 kts 270°
2026-05-01 14:09 51.46654 -0.47670 93 ft 14 kts 269°
2026-05-01 14:09 51.46654 -0.47832 95 ft 15 kts 270°
2026-05-01 14:10 51.46654 -0.47999 93 ft 15 kts 270°
2026-05-01 14:10 51.46654 -0.48171 94 ft 16 kts 269°
2026-05-01 14:10 51.46652 -0.48348 92 ft 16 kts 269°
2026-05-01 14:10 51.46652 -0.48532 92 ft 16 kts 270°
2026-05-01 14:11 51.46652 -0.48657 92 ft 10 kts 270°
2026-05-01 14:11 51.46617 -0.48756 96 ft 0 kts 201°
2026-05-01 14:12 51.46613 -0.48759 96 ft 2 kts 201°
2026-05-01 14:12 51.46590 -0.48773 94 ft 5 kts 200°
2026-05-01 14:12 51.46546 -0.48786 95 ft 7 kts 177°
2026-05-01 14:13 51.46499 -0.48751 96 ft 8 kts 140°
2026-05-01 14:13 51.46480 -0.48668 97 ft 10 kts 95°
2026-05-01 14:13 51.46477 -0.48472 95 ft 32 kts 90°
2026-05-01 14:13 51.46481 -0.47717 92 ft 103 kts 89°
2026-05-01 14:14 51.46486 -0.46223 98 ft 163 kts 89°
2026-05-01 14:14 51.46493 -0.44200 471 ft 183 kts 93°
2026-05-01 14:14 51.46502 -0.42167 1281 ft 182 kts 94°
2026-05-01 14:14 51.46292 -0.40182 1880 ft 185 kts 122°
2026-05-01 14:15 51.45398 -0.38704 2087 ft 192 kts 158°
2026-05-01 14:15 51.44074 -0.38405 2324 ft 206 kts 192°
2026-05-01 14:15 51.42727 -0.39448 2614 ft 228 kts 217°
2026-05-01 14:15 51.41476 -0.41138 3043 ft 242 kts 222°
2026-05-01 14:16 51.40542 -0.43442 3549 ft 252 kts 250°
2026-05-01 14:16 51.40376 -0.46252 4256 ft 258 kts 271°
2026-05-01 14:16 51.40584 -0.49151 4851 ft 266 kts 275°
2026-05-01 14:16 51.40860 -0.52094 5491 ft 269 kts 275°
2026-05-01 14:17 51.41154 -0.55067 6213 ft 271 kts 276°
2026-05-01 14:17 51.41463 -0.58058 6906 ft 272 kts 276°
2026-05-01 14:17 51.41774 -0.61069 7557 ft 276 kts 275°
2026-05-01 14:17 51.42097 -0.64125 8201 ft 280 kts 276°
2026-05-01 14:18 51.42427 -0.67221 8810 ft 282 kts 275°
2026-05-01 14:18 51.42760 -0.70292 9177 ft 285 kts 276°
2026-05-01 14:18 51.43101 -0.73451 9770 ft 290 kts 275°
2026-05-01 14:18 51.43402 -0.75592 10250 ft 293 kts 282°
2026-05-01 14:19 51.44368 -0.79798 10751 ft 316 kts 288°
2026-05-01 14:19 51.45271 -0.83122 11026 ft 335 kts 291°
2026-05-01 14:19 51.46287 -0.86589 11295 ft 352 kts 292°
2026-05-01 14:19 51.47381 -0.90201 11563 ft 368 kts 292°
2026-05-01 14:20 51.48523 -0.93942 11961 ft 378 kts 292°
2026-05-01 14:20 51.50855 -1.01621 13149 ft 387 kts 292°
2026-05-01 14:20 51.52027 -1.05531 13744 ft 391 kts 292°
2026-05-01 14:21 51.53202 -1.09484 14314 ft 394 kts 292°
2026-05-01 14:21 51.54383 -1.13475 14840 ft 398 kts 292°
2026-05-01 14:21 51.55573 -1.17516 15376 ft 401 kts 291°
2026-05-01 14:22 51.57981 -1.25696 16521 ft 407 kts 291°
2026-05-01 14:22 51.59190 -1.29828 17063 ft 410 kts 291°
2026-05-01 14:22 51.60409 -1.34005 17577 ft 414 kts 291°
2026-05-01 14:22 51.61632 -1.38203 18135 ft 417 kts 291°
2026-05-01 14:23 51.62871 -1.42446 18630 ft 420 kts 291°
2026-05-01 14:23 51.64118 -1.46730 19090 ft 424 kts 291°
2026-05-01 14:23 51.65370 -1.51047 19574 ft 427 kts 291°
2026-05-01 14:23 51.66613 -1.55342 20079 ft 430 kts 291°
2026-05-01 14:24 51.67881 -1.59725 20602 ft 433 kts 291°
2026-05-01 14:24 51.69154 -1.64146 21111 ft 435 kts 291°
2026-05-01 14:24 51.70168 -1.68732 21613 ft 434 kts 280°
2026-05-01 14:24 51.70770 -1.73495 22115 ft 434 kts 276°
2026-05-01 14:25 51.71223 -1.78322 22607 ft 436 kts 274°
2026-05-01 14:25 51.71614 -1.83186 23088 ft 440 kts 275°
2026-05-01 14:25 51.72184 -1.88065 23591 ft 445 kts 277°
2026-05-01 14:25 51.72826 -1.92972 24021 ft 448 kts 278°
2026-05-01 14:26 51.73515 -1.97893 24489 ft 451 kts 279°
2026-05-01 14:26 51.74968 -2.07792 25316 ft 456 kts 279°
2026-05-01 14:26 51.75711 -2.12790 25732 ft 459 kts 279°
2026-05-01 14:27 51.76457 -2.17816 26147 ft 461 kts 279°
2026-05-01 14:27 51.77192 -2.22802 26546 ft 464 kts 279°
2026-05-01 14:27 51.77937 -2.27883 26961 ft 466 kts 279°
2026-05-01 14:28 51.79428 -2.38142 27777 ft 471 kts 279°
2026-05-01 14:28 51.80174 -2.43305 28204 ft 473 kts 279°
2026-05-01 14:28 51.80921 -2.48500 28554 ft 476 kts 279°
2026-05-01 14:28 51.81672 -2.53735 28920 ft 479 kts 279°
2026-05-01 14:29 51.82420 -2.58998 29291 ft 481 kts 278°
2026-05-01 14:29 51.83148 -2.64296 29632 ft 484 kts 278°
2026-05-01 14:30 51.85293 -2.80360 30557 ft 490 kts 278°
2026-05-01 14:30 51.86015 -2.85762 30807 ft 492 kts 278°
2026-05-01 14:30 51.86739 -2.91182 31093 ft 493 kts 278°
2026-05-01 14:31 51.88170 -3.01974 31820 ft 492 kts 278°
2026-05-01 14:31 51.88886 -3.07397 32219 ft 490 kts 278°
2026-05-01 14:31 51.89597 -3.12801 32575 ft 489 kts 278°
2026-05-01 14:31 51.90304 -3.18189 32888 ft 489 kts 278°
2026-05-01 14:32 51.91006 -3.23561 33252 ft 487 kts 278°
2026-05-01 14:32 51.91704 -3.28934 33566 ft 486 kts 278°